Weather History for Cut Bank, MT

Change the Weather History Date:

Tuesday, March 5, 2013

  Actual Average Record
Temperature  
Mean Temperature 14 °F 28 °F  
Max Temperature 26 °F 39 °F 67 °F (1968)
Min Temperature 2 °F 17 °F -27 °F (1951)
Degree Days  
Heating Degree Days 51 37  
Month to date heating degree days 169 188  
Since 1 July heating degree days 5908 6248  
Cooling Degree Days 0 0  
Month to date cooling degree days 0 0  
Year to date cooling degree days 0 0  
Moisture  
Dew Point 11 °F    
Average Humidity 79    
Maximum Humidity 95    
Minimum Humidity 62    
Precipitation  
Precipitation 0.00 in 0.01 in 0.26 in (1981)
Month to date precipitation 0.01 0.06  
Year to date precipitation 0.74 0.47  
Snow  
Snow 0.00 in - - ()
Snow Depth T in    
Sea Level Pressure  
Sea Level Pressure 30.20 in    
Wind  
Wind Speed 6 mph (ESE)    
Max Wind Speed 14 mph    
Max Gust Speed 17 mph    
Visibility 9 miles    
Events Fog    
T = Trace of Precipitation, MM = Missing Value Source: NWS Daily Summary

Daily Weather History Graph

Daily Weather History Graph

Search for Another Location

Airport:

Trip Planner

Search our weather history database for the weather conditions in past years. The results will help you decide how hot, cold, wet, or windy it might be!

Date:

Astronomy

Mar. 05, 2013 Rise Set
Actual Time 7:02 AM MST 6:20 PM MST
Civil Twilight 6:31 AM MST 6:51 PM MST
Nautical Twilight 5:54 AM MST 7:27 PM MST
Astronomical Twilight 5:18 AM MST 8:04 PM MST
Moon 2:40 AM MST (3/5) 11:41 AM MST (3/5)
Length of Visible Light 12h 20m
Length of Day
11h 17m
Last Quarter, 40% of the Moon is Illuminated
Mar 5
Last Quarter
Mar 11
New
Mar 19
First Quarter
Mar 27
Full
Apr 2
Last Quarter

Hourly Weather History & Observations

Time (MST) Temp. Windchill Dew Point Humidity Pressure Visibility Wind Dir Wind Speed Gust Speed Precip Events Conditions
12:56 AM 14.0 °F 2.9 °F 10.9 °F 88% 30.32 in 10.0 mi SE 8.1 mph - N/A   Clear
1:56 AM 12.2 °F 1.7 °F 8.6 °F 85% 30.16 in 10.0 mi SE 6.9 mph - N/A   Clear
2:56 AM 10.9 °F 0.2 °F 8.1 °F 88% 30.32 in 10.0 mi SE 6.9 mph - N/A   Clear
3:56 AM 9.0 °F 0.6 °F 6.1 °F 88% 30.32 in 10.0 mi East 4.6 mph - N/A   Clear
4:56 AM 5.0 °F -5.6 °F 1.4 °F 85% 30.14 in 10.0 mi East 5.8 mph - N/A   Clear
5:56 AM 7.0 °F - 3.0 °F 84% 30.32 in 10.0 mi Calm Calm - N/A   Clear
6:56 AM 1.9 °F -5.6 °F -0.9 °F 88% 30.34 in 10.0 mi NNW 3.5 mph - N/A   Clear
7:56 AM 8.1 °F 1.4 °F 5.0 °F 87% 30.33 in 10.0 mi NE 3.5 mph - N/A   Clear
8:07 AM 8.6 °F 0.1 °F 6.8 °F 92% 30.14 in 2.5 mi ENE 4.6 mph - N/A   Partly Cloudy
8:11 AM 8.6 °F 2.0 °F 6.8 °F 92% 30.14 in 1.0 mi ENE 3.5 mph - N/A   Mist
8:19 AM 8.6 °F - 6.8 °F 92% 30.15 in 0.5 mi Calm Calm - N/A Fog Light Freezing Fog
8:48 AM 10.4 °F 0.8 °F 8.6 °F 92% 30.14 in 1.8 mi ENE 5.8 mph - N/A   Overcast
8:50 AM 10.4 °F 2.2 °F 8.6 °F 92% 30.14 in 3.0 mi ENE 4.6 mph - N/A   Overcast
8:56 AM 10.0 °F 1.8 °F 8.1 °F 92% 30.33 in 6.0 mi East 4.6 mph - N/A   Overcast
9:19 AM 10.4 °F 4.0 °F 8.6 °F 92% 30.14 in 9.0 mi East 3.5 mph - N/A   Overcast
9:56 AM 12.9 °F - 10.0 °F 88% 30.32 in 10.0 mi Calm Calm - N/A   Overcast
10:17 AM 14.0 °F 5.1 °F 10.4 °F 86% 30.13 in 10.0 mi ESE 5.8 mph - N/A   Mostly Cloudy
10:56 AM 16.0 °F 7.4 °F 12.0 °F 84% 30.30 in 10.0 mi SSE 5.8 mph - N/A   Scattered Clouds
11:56 AM 19.0 °F 10.0 °F 12.9 °F 77% 30.28 in 10.0 mi SSE 6.9 mph - N/A   Partly Cloudy
12:56 PM 21.9 °F 13.4 °F 15.1 °F 75% 30.25 in 10.0 mi ESE 6.9 mph - N/A   Clear
1:56 PM 24.1 °F 15.2 °F 14.0 °F 65% 30.23 in 10.0 mi SE 8.1 mph - N/A   Mostly Cloudy
2:56 PM 25.0 °F 18.1 °F 16.0 °F 69% 30.22 in 10.0 mi SE 5.8 mph - N/A   Scattered Clouds
3:43 PM 26.6 °F 16.8 °F 17.6 °F 69% 30.05 in 10.0 mi ESE 10.4 mph - N/A   Overcast
3:56 PM 26.1 °F 17.6 °F 17.1 °F 69% 30.21 in 10.0 mi SE 8.1 mph - N/A   Overcast
4:56 PM 26.1 °F 16.2 °F 16.0 °F 66% 30.21 in 10.0 mi SE 10.4 mph - N/A   Overcast
5:47 PM 24.8 °F 15.3 °F 15.8 °F 69% 30.04 in 10.0 mi SE 9.2 mph - N/A   Overcast
5:56 PM 25.0 °F 15.5 °F 17.1 °F 72% 30.20 in 10.0 mi East 9.2 mph - N/A   Overcast
6:05 PM 24.8 °F 13.4 °F 17.6 °F 74% 30.03 in 10.0 mi ESE 12.7 mph - N/A   Overcast
6:56 PM 23.0 °F 13.1 °F 17.1 °F 78% 30.22 in 10.0 mi SE 9.2 mph - N/A   Overcast
7:56 PM 23.0 °F 11.1 °F 15.1 °F 72% 30.20 in 10.0 mi SE 12.7 mph - N/A   Overcast
8:48 PM 21.2 °F 10.1 °F 15.8 °F 80% 30.02 in 10.0 mi ESE 10.4 mph - N/A   Mostly Cloudy
8:56 PM 21.0 °F 10.6 °F 16.0 °F 81% 30.19 in 10.0 mi SE 9.2 mph - N/A   Mostly Cloudy
9:56 PM 18.0 °F 8.7 °F 15.1 °F 88% 30.17 in 10.0 mi ESE 6.9 mph - N/A   Partly Cloudy
10:56 PM 17.1 °F 8.7 °F 14.0 °F 88% 30.15 in 10.0 mi ESE 5.8 mph - N/A   Partly Cloudy
11:56 PM 18.0 °F 9.8 °F 15.1 °F 88% 30.12 in 10.0 mi ESE 5.8 mph - N/A   Mostly Cloudy